Regional Weather Roundup
Issued by NWS

Home | Current Version | Previous Version | Text Only | Print | Product List | Glossary Off
Versions: 1 2 3 4 5 6 7 8 9 10 11 12 13 14 15 16 17 18 19 20 21 22 23 24 25 26 27 28 29 30 31 32 33 34 35 36 37 38 39 40 41 42 43 44 45 46 47 48 49 50

000
ASUS43 KMKX 032111
RWRWI

WISCONSIN REGIONAL WEATHER ROUNDUP
NATIONAL WEATHER SERVICE MILWAUKEE/SULLIVAN WI
400 PM CDT SUN MAY 03 2015

NOTE: "FAIR" INDICATES FEW OR NO CLOUDS BELOW 12,000 FEET WITH NO
SIGNIFICANT WEATHER AND/OR OBSTRUCTIONS TO VISIBILITY.

WIZ001-002-006>008-014>016-023>028-032200-
NORTHWEST WISCONSIN

CITY           SKY/WX    TMP DP  RH WIND       PRES   REMARKS
SUPERIOR ARPT  CLOUDY    74  39  28 NW16      29.79R
ASHLAND        CLOUDY    73  47  39 N9        29.76S
HAYWARD        PTSUNNY   78  47  33 SW9       29.77F
SIREN          PTSUNNY   78  48  35 W8        29.78S
CUMBERLAND     MOSUNNY   75  46  35 N5        29.78F
RICE LAKE      SUNNY     79  46  31 CALM      29.78F
CHETEK         MOSUNNY   78  55  43 CALM      29.77F
LADYSMITH      MOSUNNY   79  51  37 S6        29.79F
EAU CLAIRE     SUNNY     80  52  37 S6        29.77F HX  80
MENOMONIE      SUNNY     80  53  39 S3        29.78S HX  80
NEW RICHMOND   SUNNY     80  49  33 CALM      29.77S
OSCEOLA        MOSUNNY   78  52  40 NW6       29.79S
$$

WIZ003>005-009-010-017-018-032200-
NORTH CENTRAL WISCONSIN

CITY           SKY/WX    TMP DP  RH WIND       PRES   REMARKS
MANITOWISH WTR PTSUNNY   77  48  35 W12       29.77F
ARBOR VITAE    PTSUNNY   80  48  33 W12G17    29.77F
WOODRUFF       PTSUNNY   80  48  33 W12G17    29.77F
RHINELANDER    MOSUNNY   78  50  37 SW14G21   29.79F
EAGLE RIVER    PTSUNNY   77  44  29 W13G20    29.77F
LAND O LAKES   PTSUNNY   79  44  28 W10G17    29.77F
PHILLIPS       MOSUNNY   77  53  43 SW8       29.78F
TOMAHAWK       MOSUNNY   78  50  37 CALM      29.79F
MEDFORD        MOSUNNY   76  52  43 SW5       29.80F
MERRILL        MOSUNNY   80  53  39 W9        29.79F HX  80
$$

WIZ029-030-035-036-043>047-032200-
CENTRAL WISCONSIN

CITY           SKY/WX    TMP DP  RH WIND       PRES   REMARKS
WAUSAU         MOSUNNY   78  51  38 SW10G21   29.78F
MOSINEE        MOSUNNY   77  52  41 SW10G20   29.82S
MARSHFIELD     MOSUNNY   80  52  37 SW9       29.80F HX  80
STEVENS POINT  MOSUNNY   77  51  40 SW9G18    29.81S
WAUPACA        PTSUNNY   80  51  35 SW14G20   29.81F HX  80
WAUTOMA        MOSUNNY   79  51  37 SW17G24   29.82S
WISC RAPIDS    MOSUNNY   80  49  33 SW13G18   29.81F
CAMP DOUGLAS   MOSUNNY   80  54  41 S10G18    29.80F HX  80
$$

WIZ011>013-019>022-031-037>040-048>050-032200-
NORTHEAST WISCONSIN

CITY           SKY/WX    TMP DP  RH WIND       PRES   REMARKS
ANTIGO         MOSUNNY   77  52  41 SW14G20   29.80F
SHAWANO        PTSUNNY   81  49  33 S5G21     29.79F HX  80
OCONTO         MOSUNNY   80  53  39 SW17G23   29.79S HX  80
STURGEON BAY   MOSUNNY   66  46  48 S16       29.84F
GREEN BAY      MOSUNNY   77  54  44 S20G26    29.82F
MANITOWOC      CLOUDY    64  48  56 S17       29.86F
APPLETON       PTSUNNY   77  52  41 SW21G28   29.83F
CLINTONVILLE   PTSUNNY   79  50  36 SW17G25   29.80S
OSHKOSH        CLOUDY    76  55  48 S20G26    29.83S
$$

WIZ032>034-041-042-053>061-032200-
SOUTHWEST WISCONSIN

CITY           SKY/WX    TMP DP  RH WIND       PRES   REMARKS
LA CROSSE      SUNNY     84  46  26 S10       29.77F HX  82
SPARTA         MOSUNNY   82  49  31 SW7       29.80F HX  80
VIROQUA        PTSUNNY   80  51  36 S12       29.83S HX  80
BOSCOBEL       SUNNY     79  56  45 S9        29.84S HX  80
PRAIRIE DU CHI SUNNY     79  53  40 SE7       29.81F
PLATTEVILLE    MOSUNNY   73  57  58 S15G22    29.87F
$$

WIZ056-057-062-063-064-067-068-032200-
SOUTH CENTRAL WISCONSIN

CITY           SKY/WX    TMP DP  RH WIND       PRES   REMARKS
REEDSBURG      PTSUNNY   76  55  47 S16G23    29.84F
BARABOO/DELLS  NOT AVBL
LONE ROCK      MOSUNNY   75  55  49 S14G22    29.85F
MINERAL POINT  MOSUNNY   73  54  49 S15G21    29.87F
MADISON        PTSUNNY   74  55  51 S16       29.88S
MIDDLETON      PTSUNNY   74  52  45 SW16G25   29.88F
WATERTOWN      PTSUNNY   71  55  57 S18G24    29.89S
MONROE         PTSUNNY   63  59  88 S16       29.90F
JANESVILLE     LGT RAIN  64  57  77 S13       29.91S
$$

WIZ051-052-058>065-066-070>072-032200-
SOUTHEAST WISCONSIN

CITY           SKY/WX    TMP DP  RH WIND       PRES   REMARKS
MILWAUKEE      CLOUDY    74  50  42 SW20      29.90S
WAUKESHA       NOT AVBL
MILWAUKEE/TIMM SUNNY     73  48  40 SW14G28   29.91R
RACINE         CLOUDY    74  50  42 SW14G24   29.92S
BURLINGTON     LGT RAIN  65  55  69 W3        29.91F
KENOSHA        CLOUDY    73  53  49 SW6       29.91F
FOND DU LAC    CLOUDY    77  53  43 SW21G30   29.85S
SHEBOYGAN      PTSUNNY   74  52  46 S9        29.86S
WEST BEND      PTSUNNY   75  50  41 SW16G29   29.88R
JUNEAU         PTSUNNY   74  55  50 S22G28    29.90R
$$

LSZ147-162-032200-
LAKE SUPERIOR

STATION/POSITION TIME  TEMP    WIND        PRES    WAVE
                       AIR SEA DIR/SP/G            HT/PER
                 (UTC) (F)     (DEG/KT/KT) (MB)    (FT/S)
W MID LAKE BUOY  2050   45 36  260/  6/  6 1008.1R   1
DEVILS ISLAND    2100   66     240/ 10/ 12 1007.3F
PORT WING        2040   73     270/  7/  9 1007.5F
SAXON HARBOR     2040   61        CALM     1007.5S
$$

LMZ867-665-643>646-032200-
LAKE MICHIGAN

STATION/POSITION TIME  TEMP    WIND        PRES    WAVE
                       AIR SEA DIR/SP/G            HT/PER
                 (UTC) (F)     (DEG/KT/KT) (MB)    (FT/S)
CHAMBERS ISLAND  2000   72     160/  8/ 16 1009.8F
NORTHPORT PIER   2000   63     160/  8/ 16 1010.5F
KEWAUNEE LAKESHO 2000   48     180/ 16/ 19 1010.5F
SHEBOYGAN LAKESH 2100   50     170/ 19/ 20 1011.4F
PORT WASHINGTON  2000   52     160/  4/  7 1012.9
ATWATER BUOY     2000          210/ 19/ 21 1013.5F
MILWAUKEE LAKESH 2000   73     210/ 20/ 25   N/A
KENOSHA   LAKESH 2100   74     220/  7/ 15 1012.5F
$$

TC  - TEMPERATURE IN CELSIUS
VSB - VISIBILITY IN STATUTE MILES
WCI - WIND CHILL INDEX
HX  - HEAT INDEX



USA.gov is the U.S. government's official web portal to all federal, state and local government web resources and services.